Powrót do katalogu

ARIANE 5 R/B

AktywnyGTO
NORAD 57216·ROCKET BODY·🇫🇷 France

Wystrzelony Jul 5, 2023 z Guiana Space Centre

Loading…

TLE

Starzejące sięSource: Space-Track

Epoka: Sep 14, 2026, 06:13 UTC

1 57216U 23093D   26257.25907939  .00001338  00000-0  70219-3 0  9991
2 57216   3.0432 322.4066 7195594  71.6192 349.4071  2.37563469 27309

Śledź ARIANE 5 R/B w czasie rzeczywistym z AllMySat

Download on the App Store